Flag for U.S.A. Weather past 2 weeks in Monticello, Kentucky, U.S.A.

57 °F

Light rain. Mostly cloudy.

Feels Like: 56 °F
Forecast: 56 / 60 °F
Wind: 6 mph from Southwest

Location: London-Corbin Airport-Magee Field

Current Time: Nov 29, 2015 at 4:14:57 AM

Latest Report: Nov 29, 2015 at 2:53 AM

Visibility: 8 mi

Pressure: 30.16 "Hg

Humidity: 93%

Dew point: 55 °F

Location of MonticelloLocation

Historic Weather in Monticello — Graph


Monticello temperature yesterday

Maximum temperature yesterday: 62 °F (at 12:53 PM)
Minimum temperature yesterday: 53 °F (at 5:53 AM)
Average temperature yesterday: 57 °F

Past Weeks' High & Low Weather Summary

High70 °F (Nov 18, 12:53 PM)97% (Nov 28, 11:53 PM)30.60 "Hg (Nov 28, 11:53 PM)
Low20 °F (Nov 23, 4:53 AM)19% (Nov 14, 12:53 PM)29.79 "Hg (Nov 18, 7:53 PM)
Average47 °F62%30.26 "Hg
* Reported Nov 14 2:53 AM — Nov 29 2:53 AM, Monticello, Weather by CustomWeather, © 2015

Note: Actual official high and low records may vary slightly from our data, if they occured in-between our weather recording intervals... More about our weather records


Monticello weather history for previous 24 hours

Time TempWeatherWind HumidityBarometerVisibility
2:53 AM
Sun, Nov 29
57 °FLight rain. Mostly cloudy.6 mph93%30.16 "Hg8 mi
1:53 AM57 °FLight rain. Fog.6 mph93%30.17 "Hg5 mi
12:53 AM56 °FLight rain. Fog.6 mph97%30.18 "Hg6 mi
11:53 PM
Sat, Nov 28
56 °FLight rain. Fog.3 mph97%30.19 "Hg2 mi
10:53 PM57 °FLight rain. Fog.No wind93%30.19 "Hg4 mi
9:53 PM56 °FLight rain. Mostly cloudy.3 mph93%30.20 "Hg7 mi
8:53 PM57 °FFog.No wind93%30.19 "Hg5 mi
7:53 PM57 °FLight rain. Overcast.3 mph93%30.21 "Hg10 mi
6:53 PM58 °FLight rain. Overcast.5 mph90%30.21 "Hg9 mi
5:53 PM58 °FRain. Fog.No wind93%30.21 "Hg3 mi
4:53 PM59 °FLight rain. Fog.3 mph90%30.19 "Hg6 mi
3:53 PM60 °FRain. Fog.No wind86%30.19 "Hg4 mi
2:53 PM61 °FLight rain. Overcast.No wind81%30.18 "Hg9 mi
1:53 PM61 °FLight rain. More clouds than sun.6 mph78%30.21 "Hg10 mi
12:53 PM62 °FLight rain. Mostly cloudy.7 mph70%30.23 "Hg10 mi
11:53 AM61 °FLight rain. Overcast.5 mph72%30.25 "Hg10 mi
10:53 AM59 °FLight rain. Mostly cloudy.No wind72%30.28 "Hg10 mi
9:53 AM57 °FMore clouds than sun.No wind81%30.28 "Hg10 mi
8:53 AM56 °FOvercast.No wind81%30.27 "Hg10 mi
7:53 AM53 °FOvercast.No wind83%30.25 "Hg10 mi
6:53 AM54 °FOvercast.No wind80%30.25 "Hg10 mi
5:53 AM53 °FOvercast.3 mph86%30.24 "Hg10 mi
4:53 AM54 °FOvercast.3 mph80%30.23 "Hg10 mi
Weather by CustomWeather, © 2015

See weather overviewHow to use our weather pages